Cloud_Cover
0 0 0 0 30 100 100 100 100 100 100 100 100 100 100 100 100 100 0 4 100 4 1 3 27 29 74 100 34 99 100 100 100 100 100 100 100 90 100 12 42 15 5 5
0 0 0 0 0 0 0 74 100 95 100 100 100 100 100 100 100 25 74 100 98 7 1 0 0 5 5 5 6 5 10 21 25 72 100 100 100 94 100 73 92 5 5 3
3 0 0 0 0 0 0 0 1 24 81 100 99 100 100 100 91 86 6 41 9 15 0 1 2 4 0 5 5 5 20 20 0 0 8 100 98 100 100 100 100 80 19 13
0 0 0 0 0 0 0 0 0 0 0 4 5 7 63 86 70 100 100 46 3 1 21 5 3 5 4 4 4 0 5 7 3 0 0 0 22 100 100 100 100 94 74 10
0 0 0 0 0 0 0 0 0 0 0 0 2 32 5 44 100 100 96 24 5 7 8 6 48 18 0 5 4 2 5 21 5 0 0 4 6 92 82 96 52 92 17 64
0 0 0 0 0 0 0 0 0 0 0 0 0 47 0 0 3 65 5 5 32 8 51 37 5 5 51 5 5 22 47 73 8 5 0 1 5 83 28 47 95 94 44 94
0 0 0 0 0 0 0 0 0 0 0 0 2 7 45 8 16 60 5 3 5 79 51 5 0 1 2 70 100 100 100 100 6 0 0 0 5 3 55 60 100 100 100 39
0 4 0 0 0 0 0 0 0 2 0 0 0 0 0 4 0 45 5 5 63 8 85 74 2 5 53 99 99 100 100 100 6 4 0 0 0 0 63 64 34 100 100 36
0 0 0 0 0 0 0 0 0 0 0 0 0 0 0 3 5 14 5 28 20 92 7 95 6 0 0 12 98 99 100 100 100 5 2 0 16 1 0 0 0 0 17 33
0 0 0 0 0 0 0 0 0 0 0 0 0 0 0 0 94 39 95 56 24 69 59 2 1 0 0 0 0 14 100 100 100 100 75 96 82 3 0 0 2 0 0 0
0 0 0 0 0 0 0 0 0 0 0 0 0 0 0 0 0 39 39 0 0 0 0 0 0 0 0 0 0 4 26 62 96 100 97 100 100 10 0 0 0 10 18 4
0 0 0 0 0 0 0 0 0 0 0 0 0 0 0 0 0 0 0 0 0 0 0 0 39 1 0 0 1 0 0 0 6 100 55 46 100 89 0 0 0 0 14 81
0 0 0 0 0 0 0 0 0 0 0 0 0 0 0 0 0 0 0 0 0 4 0 0 0 0 0 0 0 0 0 0 8 22 99 100 22 7 0 0 0 0 0 0
0 0 0 0 0 0 0 0 0 0 0 0 0 0 0 0 0 0 1 2 0 0 0 12 3 4 0 4 2 3 0 5 95 96 100 100 44 5 5 2 0 0 2 0
0 0 0 0 0 0 0 0 0 0 0 0 0 0 0 0 0 0 4 0 0 0 0 46 86 10 11 33 67 5 5 87 100 100 100 100 99 73 10 5 5 4 5 5
0 0 0 0 0 0 0 0 0 0 0 0 0 0 0 0 5 5 5 86 100 100 100 100 89 100 100 88 100 97 21 100 100 100 100 100 100 61 51 98 96 100 100 87
0 0 0 0 0 0 0 0 0 0 0 0 0 0 0 0 0 5 5 50 43 100 100 100 100 98 100 100 100 100 86 48 100 100 100 99 100 77 91 100 100 100 100 100
0 0 0 0 0 0 0 0 0 0 0 0 0 0 0 0 0 0 0 5 42 100 100 100 100 100 100 100 100 100 100 100 100 84 96 100 100 100 100 100 100 100 97 100
0 0 0 0 0 0 0 0 0 0 0 0 0 0 0 0 0 0 0 0 3 29 26 35 100 54 100 100 100 100 89 100 100 100 100 100 100 100 100 100 100 100 88 82
0 0 0 0 0 0 0 0 0 0 0 0 0 0 0 0 0 0 5 2 0 0 4 41 5 5 17 27 22 91 100 82 100 100 100 100 100 100 100 100 100 90 10 40
0 0 0 0 0 0 0 0 5 0 4 2 5 5 2 5 5 5 5 0 0 0 2 5 0 0 3 5 45 22 8 58 96 100 100 100 100 100 100 30 79 68 54 71
0 0 0 0 0 0 0 0 0 5 3 5 5 5 9 26 27 30 16 6 4 5 5 3 0 0 0 0 5 14 25 5 5 5 8 76 98 100 98 98 77 64 47 53
0 0 4 0 0 0 0 0 0 1 24 5 4 5 6 71 92 84 85 54 12 5 5 5 0 0 0 0 0 4 5 4 3 0 0 2 13 79 30 16 58 99 96 30
0 2 2 0 5 3 0 0 0 0 1 4 4 3 59 100 100 82 99 74 100 25 5 5 5 5 5 5 8 4 1 0 3 5 3 1 0 6 0 0 0 1 4 76
0 5 5 5 5 1 5 5 4 0 0 0 0 2 25 42 89 81 14 4 55 66 5 12 5 5 5 5 74 58 6 5 5 2 0 0 0 0 1 0 0 0 0 5
4 0 2 12 11 5 5 5 0 0 0 0 5 5 4 5 5 5 1 0 5 31 5 5 5 5 5 5 42 5 5 5 7 5 4 5 1 29 24 27 10 0 5 12